MSR77W OMDB-HECA

Flight info

Callsign MSR77W
Flight time 0h 57m
Altitude 32000
Route SENPA N571 ALPOB L768 VATIM L550 RASMO/N0500F340 L550 NOVPA N697 MENLI L677 CVO
Aircraft B77W/H-SDE1E2E3FGHIJ2J3J4J5M1RWXY/LB1D1

Departure

Time 2026-04-20 19:31
Airport Dubai International Airport (OMDB)

Arrival

Time 2026-04-20 20:28
Airport Cairo International Airport (HECA)
Time Latitude Longitude Altitude Speed Heading
2026-04-20 18:56 25.24218 55.37600 44 ft 0 kts 249°
2026-04-20 19:20 25.24219 55.37603 47 ft 3 kts 250°
2026-04-20 19:20 25.24226 55.37631 44 ft 4 kts 268°
2026-04-20 19:20 25.24223 55.37659 41 ft 4 kts 294°
2026-04-20 19:20 25.24208 55.37683 40 ft 4 kts 321°
2026-04-20 19:21 25.24185 55.37698 41 ft 4 kts 344°
2026-04-20 19:21 25.24160 55.37701 39 ft 4 kts 19°
2026-04-20 19:21 25.24154 55.37698 40 ft 1 kts 29°
2026-04-20 19:26 25.24161 55.37703 48 ft 4 kts 29°
2026-04-20 19:27 25.24196 55.37724 45 ft 8 kts 29°
2026-04-20 19:27 25.24248 55.37758 45 ft 6 kts 30°
2026-04-20 19:27 25.24260 55.37766 44 ft 4 kts 30°
2026-04-20 19:27 25.24288 55.37794 44 ft 7 kts 59°
2026-04-20 19:28 25.24326 55.37833 39 ft 10 kts 34°
2026-04-20 19:28 25.24374 55.37868 27 ft 1 kts 30°
2026-04-20 19:28 25.24385 55.37874 28 ft 2 kts 27°
2026-04-20 19:28 25.24398 55.37882 28 ft 2 kts 27°
2026-04-20 19:29 25.24413 55.37890 29 ft 2 kts 27°
2026-04-20 19:29 25.24429 55.37899 29 ft 4 kts 27°
2026-04-20 19:29 25.24483 55.37931 27 ft 19 kts 31°
2026-04-20 19:29 25.24632 55.38039 37 ft 28 kts 32°
2026-04-20 19:30 25.24779 55.38059 39 ft 17 kts 320°
2026-04-20 19:30 25.24859 55.37912 38 ft 39 kts 300°
2026-04-20 19:30 25.25203 55.37285 35 ft 151 kts 301°
2026-04-20 19:30 25.25884 55.36042 569 ft 211 kts 300°
2026-04-20 19:31 25.26398 55.35111 1425 ft 216 kts 302°
2026-04-20 19:31 25.27457 55.33219 2564 ft 230 kts 302°
2026-04-20 19:31 25.28342 55.31641 3164 ft 244 kts 302°
2026-04-20 19:31 25.29241 55.30014 3956 ft 251 kts 300°
2026-04-20 19:32 25.29654 55.28804 4362 ft 260 kts 281°
2026-04-20 19:32 25.29840 55.26092 5294 ft 272 kts 276°
2026-04-20 19:32 25.29942 55.24687 5951 ft 273 kts 277°
2026-04-20 19:32 25.30102 55.22593 6946 ft 272 kts 277°
2026-04-20 19:33 25.30267 55.20503 7921 ft 273 kts 277°
2026-04-20 19:33 25.30426 55.18402 8847 ft 275 kts 275°
2026-04-20 19:33 25.30382 55.16272 9743 ft 280 kts 268°
2026-04-20 19:33 25.30249 55.14144 10446 ft 283 kts 275°
2026-04-20 19:34 25.30515 55.11953 11038 ft 293 kts 283°
2026-04-20 19:34 25.30975 55.09725 11764 ft 300 kts 284°
2026-04-20 19:34 25.31476 55.07466 12587 ft 305 kts 284°
2026-04-20 19:34 25.31979 55.05170 13442 ft 309 kts 284°
2026-04-20 19:35 25.32479 55.02835 14236 ft 314 kts 283°
2026-04-20 19:35 25.32970 55.00479 15078 ft 316 kts 283°
2026-04-20 19:35 25.33456 54.98102 15900 ft 319 kts 282°
2026-04-20 19:35 25.33941 54.95689 16737 ft 322 kts 282°
2026-04-20 19:36 25.34425 54.93255 17584 ft 325 kts 281°
2026-04-20 19:36 25.34910 54.90796 18393 ft 329 kts 281°
2026-04-20 19:36 25.35397 54.88316 19140 ft 331 kts 281°
2026-04-20 19:36 25.35885 54.85817 19904 ft 333 kts 281°
2026-04-20 19:37 25.36376 54.83300 20686 ft 336 kts 280°
2026-04-20 19:37 25.36869 54.80765 21449 ft 339 kts 280°
2026-04-20 19:37 25.37376 54.78146 21691 ft 360 kts 280°
2026-04-20 19:37 25.37913 54.75365 21849 ft 381 kts 280°
2026-04-20 19:38 25.38481 54.72425 21993 ft 400 kts 281°
2026-04-20 19:38 25.39075 54.69350 22229 ft 415 kts 281°
2026-04-20 19:38 25.39685 54.66195 22645 ft 424 kts 281°
2026-04-20 19:38 25.40306 54.62986 23194 ft 429 kts 281°
2026-04-20 19:39 25.40939 54.59709 23375 ft 442 kts 281°
2026-04-20 19:39 25.41587 54.56343 23563 ft 453 kts 281°
2026-04-20 19:39 25.42240 54.52950 23832 ft 459 kts 281°
2026-04-20 19:39 25.42915 54.49441 24239 ft 462 kts 281°
2026-04-20 19:40 25.43582 54.45964 24676 ft 463 kts 281°
2026-04-20 19:40 25.44253 54.42465 25083 ft 466 kts 281°
2026-04-20 19:40 25.44926 54.38953 25459 ft 468 kts 281°
2026-04-20 19:40 25.45604 54.35399 25538 ft 477 kts 281°
2026-04-20 19:41 25.46295 54.31774 25598 ft 485 kts 281°
2026-04-20 19:41 25.46993 54.28105 25735 ft 489 kts 281°
2026-04-20 19:41 25.47688 54.24457 26437 ft 479 kts 281°
2026-04-20 19:41 25.48372 54.20865 27066 ft 475 kts 281°
2026-04-20 19:42 25.49053 54.17280 27588 ft 473 kts 281°
2026-04-20 19:42 25.49722 54.13750 28444 ft 465 kts 280°
2026-04-20 19:42 25.50376 54.10296 29003 ft 465 kts 280°
2026-04-20 19:42 25.51041 54.06770 29343 ft 470 kts 280°
2026-04-20 19:43 25.51477 54.04455 29524 ft 473 kts 280°
2026-04-20 19:43 25.52385 53.99629 29926 ft 478 kts 280°
2026-04-20 19:43 25.53061 53.96026 30323 ft 477 kts 281°
2026-04-20 19:43 25.53735 53.92443 30838 ft 473 kts 281°
2026-04-20 19:44 25.54401 53.88895 31422 ft 468 kts 281°
2026-04-20 19:44 25.55059 53.85386 31849 ft 466 kts 282°
2026-04-20 19:44 25.55719 53.81859 31827 ft 467 kts 282°
2026-04-20 19:45 25.57026 53.74860 31842 ft 463 kts 282°
2026-04-20 19:45 25.58322 53.67892 31839 ft 460 kts 282°
2026-04-20 19:46 25.59609 53.60959 31836 ft 459 kts 282°
2026-04-20 19:46 25.60893 53.54025 31836 ft 459 kts 282°
2026-04-20 19:47 25.62174 53.47086 31838 ft 460 kts 282°
2026-04-20 19:47 25.63455 53.40126 31837 ft 461 kts 282°
2026-04-20 19:48 25.64726 53.33202 31836 ft 462 kts 282°
2026-04-20 19:48 25.66004 53.26223 31836 ft 462 kts 282°
2026-04-20 19:49 25.69365 53.07767 31839 ft 462 kts 281°
2026-04-20 19:49 25.87807 52.65610 31853 ft 457 kts 296°
2026-04-20 19:49 25.90079 52.60569 31833 ft 456 kts 294°
2026-04-20 19:50 25.92720 52.54164 31839 ft 456 kts 294°
2026-04-20 19:50 26.23667 51.84381 32111 ft 446 kts 294°
2026-04-20 19:50 26.50329 51.12412 29461 ft 459 kts 279°
2026-04-20 19:51 26.67031 50.67393 30990 ft 447 kts 290°
2026-04-20 19:51 26.67684 50.65060 31093 ft 442 kts 276°
2026-04-20 19:51 26.71559 50.44262 31979 ft 457 kts 287°
2026-04-20 19:51 26.78965 50.16167 31985 ft 480 kts 287°
2026-04-20 19:52 26.85724 49.94174 31836 ft 467 kts 285°
2026-04-20 19:52 26.86703 49.90792 31862 ft 448 kts 285°
2026-04-20 19:52 26.87653 49.87505 31794 ft 442 kts 285°
2026-04-20 19:53 26.89572 49.80897 31906 ft 451 kts 285°
2026-04-20 19:53 26.93285 49.68259 33046 ft 451 kts 286°
2026-04-20 19:53 26.97213 49.54859 33867 ft 454 kts 286°
2026-04-20 19:54 27.07171 49.29311 33895 ft 439 kts 295°
2026-04-20 19:54 27.21896 48.99914 33972 ft 443 kts 295°
2026-04-20 19:54 27.46558 48.50400 34059 ft 460 kts 294°
2026-04-20 19:55 27.71244 48.00112 33872 ft 456 kts 293°
2026-04-20 19:55 27.92008 47.49793 33829 ft 420 kts 280°
2026-04-20 19:55 28.07677 46.97414 34194 ft 445 kts 282°
2026-04-20 19:55 28.25316 46.43600 33993 ft 455 kts 282°
2026-04-20 19:56 28.36861 46.08180 33972 ft 449 kts 282°
2026-04-20 19:56 28.62732 45.38602 33982 ft 437 kts 285°
2026-04-20 19:56 28.81080 44.88148 34037 ft 427 kts 285°
2026-04-20 19:56 28.88117 44.47146 34049 ft 398 kts 269°
2026-04-20 19:57 28.88325 44.43964 34009 ft 409 kts 271°
2026-04-20 19:57 28.88896 44.37407 34029 ft 415 kts 272°
2026-04-20 19:57 28.89185 44.34147 33820 ft 412 kts 271°
2026-04-20 19:58 28.90588 44.16763 32231 ft 408 kts 271°
2026-04-20 19:58 28.92490 43.91718 31678 ft 383 kts 270°
2026-04-20 19:58 28.94284 43.67461 31963 ft 391 kts 271°
2026-04-20 19:58 28.96145 43.41721 32094 ft 417 kts 271°
2026-04-20 19:59 28.97968 43.15599 31883 ft 414 kts 271°
2026-04-20 19:59 28.99721 42.89863 31814 ft 399 kts 271°
2026-04-20 19:59 29.01386 42.64483 32023 ft 411 kts 271°
2026-04-20 19:59 29.03120 42.37450 32102 ft 438 kts 271°
2026-04-20 20:00 29.04853 42.09531 31951 ft 440 kts 271°
2026-04-20 20:00 29.06568 41.81110 31863 ft 429 kts 271°
2026-04-20 20:00 29.09681 41.27248 32035 ft 425 kts 271°
2026-04-20 20:01 29.11866 40.17907 31975 ft 432 kts 266°
2026-04-20 20:01 29.11208 39.48015 31929 ft 433 kts 268°
2026-04-20 20:02 29.10804 38.37775 32001 ft 433 kts 268°
2026-04-20 20:02 29.09621 37.27900 31942 ft 430 kts 268°
2026-04-20 20:03 29.08015 36.18611 31935 ft 434 kts 267°
2026-04-20 20:03 29.06619 35.73050 31981 ft 430 kts 267°
2026-04-20 20:04 29.06394 35.66214 31978 ft 430 kts 267°
2026-04-20 20:04 29.06166 35.59344 31980 ft 430 kts 267°
2026-04-20 20:05 29.05941 35.52561 31989 ft 429 kts 267°
2026-04-20 20:05 29.05711 35.45772 31360 ft 424 kts 267°
2026-04-20 20:05 29.05597 35.42410 30494 ft 422 kts 267°
2026-04-20 20:06 29.05482 35.39060 29530 ft 421 kts 267°
2026-04-20 20:06 29.05367 35.35727 28551 ft 419 kts 267°
2026-04-20 20:06 29.05251 35.32404 27674 ft 417 kts 267°
2026-04-20 20:06 29.05135 35.29100 26839 ft 415 kts 267°
2026-04-20 20:07 29.05018 35.25821 26132 ft 410 kts 267°
2026-04-20 20:07 29.04903 35.22572 25243 ft 410 kts 267°
2026-04-20 20:07 29.04787 35.19285 24197 ft 416 kts 267°
2026-04-20 20:07 29.04667 35.15966 23146 ft 420 kts 267°
2026-04-20 20:08 29.04545 35.12616 22072 ft 422 kts 267°
2026-04-20 20:08 29.04423 35.09268 21159 ft 421 kts 267°
2026-04-20 20:08 29.04301 35.05947 20421 ft 416 kts 267°
2026-04-20 20:08 29.04179 35.02661 19725 ft 412 kts 267°
2026-04-20 20:09 29.04057 34.99395 19030 ft 408 kts 267°
2026-04-20 20:09 29.03936 34.96169 18334 ft 405 kts 267°
2026-04-20 20:09 29.03815 34.92958 17520 ft 403 kts 267°
2026-04-20 20:09 29.03694 34.89773 16797 ft 400 kts 267°
2026-04-20 20:10 29.03574 34.86619 16285 ft 396 kts 267°
2026-04-20 20:10 29.03458 34.83441 16100 ft 402 kts 268°
2026-04-20 20:10 29.03406 34.80273 15961 ft 395 kts 270°
2026-04-20 20:10 29.03419 34.77162 15955 ft 387 kts 269°
2026-04-20 20:11 29.03335 34.74112 15951 ft 380 kts 268°
2026-04-20 20:11 29.03283 34.72116 15960 ft 378 kts 269°
2026-04-20 20:11 29.03419 34.68156 15959 ft 378 kts 278°
2026-04-20 20:11 29.03939 34.65208 15967 ft 379 kts 283°
2026-04-20 20:12 29.04602 34.62286 15978 ft 380 kts 285°
2026-04-20 20:12 29.05115 34.60335 15980 ft 380 kts 286°
2026-04-20 20:12 29.05944 34.57454 15981 ft 381 kts 287°
2026-04-20 20:13 29.16298 34.22361 14617 ft 348 kts 287°
2026-04-20 20:13 29.22269 34.01745 10608 ft 337 kts 288°
2026-04-20 20:13 29.28006 33.81777 7707 ft 313 kts 289°
2026-04-20 20:13 29.29470 33.76697 7727 ft 307 kts 289°
2026-04-20 20:14 29.30184 33.74231 7911 ft 345 kts 289°
2026-04-20 20:14 29.30954 33.71562 7972 ft 357 kts 289°
2026-04-20 20:14 29.31964 33.68047 8026 ft 360 kts 289°
2026-04-20 20:14 29.37498 33.48646 8088 ft 364 kts 289°
2026-04-20 20:15 29.43721 33.26691 8014 ft 359 kts 289°
2026-04-20 20:15 29.49856 33.04902 8907 ft 369 kts 288°
2026-04-20 20:15 29.56168 32.82290 11400 ft 377 kts 288°
2026-04-20 20:15 29.62208 32.59282 11998 ft 369 kts 285°
2026-04-20 20:16 29.72258 32.14092 12022 ft 361 kts 285°
2026-04-20 20:16 29.78440 31.86633 12003 ft 359 kts 291°
2026-04-20 20:16 29.79646 31.84104 11994 ft 362 kts 306°
2026-04-20 20:16 29.81247 31.81885 11605 ft 360 kts 309°
2026-04-20 20:17 29.82830 31.79659 11060 ft 359 kts 308°
2026-04-20 20:17 29.84350 31.77395 10512 ft 355 kts 307°
2026-04-20 20:17 29.85991 31.74876 9894 ft 353 kts 306°
2026-04-20 20:17 29.91741 31.65929 7716 ft 344 kts 306°
2026-04-20 20:18 29.97384 31.57184 6857 ft 331 kts 307°
2026-04-20 20:18 30.00777 31.51912 6951 ft 330 kts 307°
2026-04-20 20:18 30.02177 31.49736 6990 ft 343 kts 307°
2026-04-20 20:18 30.03610 31.47509 7004 ft 346 kts 307°
2026-04-20 20:19 30.05043 31.45280 7009 ft 344 kts 307°
2026-04-20 20:19 30.06458 31.43076 7007 ft 343 kts 307°
2026-04-20 20:19 30.07739 31.40837 6902 ft 332 kts 295°
2026-04-20 20:19 30.08142 31.38269 6826 ft 324 kts 266°
2026-04-20 20:20 30.07413 31.35884 6690 ft 307 kts 236°
2026-04-20 20:20 30.05852 31.34418 6441 ft 278 kts 202°
2026-04-20 20:20 30.04056 31.34169 6104 ft 247 kts 180°
2026-04-20 20:20 30.02479 31.33849 5637 ft 220 kts 214°
2026-04-20 20:21 30.01441 31.32688 4952 ft 206 kts 233°
2026-04-20 20:21 30.00451 31.31498 3978 ft 207 kts 226°
2026-04-20 20:21 29.99366 31.30409 3222 ft 195 kts 223°
2026-04-20 20:21 29.98354 31.29467 3406 ft 197 kts 222°
2026-04-20 20:22 29.97231 31.28443 3422 ft 207 kts 221°
2026-04-20 20:22 29.96083 31.27417 3422 ft 207 kts 223°
2026-04-20 20:22 29.95268 31.26207 3364 ft 180 kts 261°
2026-04-20 20:22 29.95406 31.24883 3361 ft 160 kts 301°
2026-04-20 20:23 29.96234 31.24157 3339 ft 151 kts 348°
2026-04-20 20:23 29.97256 31.24436 3351 ft 160 kts 29°
2026-04-20 20:23 29.98193 31.25175 3380 ft 165 kts 30°
2026-04-20 20:23 29.99114 31.25995 3382 ft 168 kts 37°
2026-04-20 20:24 29.99988 31.26893 3241 ft 168 kts 38°
2026-04-20 20:24 30.00824 31.27808 3039 ft 162 kts 41°
2026-04-20 20:24 30.01569 31.28732 2821 ft 148 kts 43°
2026-04-20 20:24 30.02228 31.29588 2627 ft 141 kts 43°
2026-04-20 20:25 30.02964 31.30548 2507 ft 179 kts 44°
2026-04-20 20:25 30.03787 31.31642 2343 ft 177 kts 44°
2026-04-20 20:25 30.04607 31.32729 2273 ft 183 kts 44°
2026-04-20 20:25 30.05406 31.33792 2003 ft 168 kts 44°
2026-04-20 20:26 30.06139 31.34765 1791 ft 155 kts 44°
2026-04-20 20:26 30.06845 31.35699 1614 ft 152 kts 43°
2026-04-20 20:26 30.07541 31.36621 1397 ft 150 kts 43°
2026-04-20 20:26 30.08229 31.37531 1201 ft 153 kts 44°
2026-04-20 20:27 30.08941 31.38472 988 ft 156 kts 44°
2026-04-20 20:27 30.09649 31.39409 579 ft 158 kts 44°
2026-04-20 20:27 30.10342 31.40320 382 ft 140 kts 44°
2026-04-20 20:27 30.10853 31.40961 379 ft 62 kts 52°
2026-04-20 20:28 30.10967 31.41126 378 ft 30 kts 51°
2026-04-20 20:28 30.12791 31.43586 2324 ft 119 kts 45°
2026-04-20 20:29 30.13343 31.44400 2341 ft 148 kts 45°
2026-04-20 20:29 30.14051 31.45420 2342 ft 175 kts 45°
2026-04-20 20:29 30.14994 31.46339 2427 ft 176 kts 15°
2026-04-20 20:29 30.16140 31.46294 2921 ft 169 kts 335°
2026-04-20 20:30 30.16999 31.45342 2989 ft 178 kts 296°
2026-04-20 20:30 30.17103 31.43918 2978 ft 186 kts 257°
2026-04-20 20:30 30.16452 31.42616 2990 ft 190 kts 237°
2026-04-20 20:30 30.15610 31.41396 3011 ft 197 kts 235°
2026-04-20 20:31 30.14738 31.40161 3028 ft 198 kts 235°
2026-04-20 20:31 30.13872 31.38941 3008 ft 198 kts 235°
2026-04-20 20:31 30.13005 31.37720 2999 ft 199 kts 234°
2026-04-20 20:31 30.12122 31.36462 3017 ft 200 kts 234°
2026-04-20 20:32 30.11247 31.35220 2999 ft 198 kts 235°
2026-04-20 20:32 30.10370 31.33979 3021 ft 199 kts 234°
2026-04-20 20:32 30.09504 31.32749 3000 ft 199 kts 234°
2026-04-20 20:32 30.08624 31.31505 3004 ft 199 kts 234°
2026-04-20 20:33 30.07758 31.30273 3013 ft 199 kts 235°
2026-04-20 20:33 30.06880 31.29029 3009 ft 199 kts 234°
2026-04-20 20:33 30.06003 31.27781 3016 ft 200 kts 234°
2026-04-20 20:33 30.05136 31.26531 3009 ft 198 kts 235°
2026-04-20 20:34 30.04248 31.25314 2957 ft 199 kts 225°
2026-04-20 20:34 30.03000 31.24636 2715 ft 205 kts 185°
2026-04-20 20:34 30.01613 31.25028 2552 ft 212 kts 143°
2026-04-20 20:34 30.00724 31.26296 2503 ft 203 kts 103°
2026-04-20 20:35 30.00710 31.27847 2491 ft 188 kts 62°
2026-04-20 20:35 30.01487 31.28982 2558 ft 180 kts 37°
2026-04-20 20:35 30.02419 31.29958 2582 ft 183 kts 41°
2026-04-20 20:35 30.03297 31.31012 2558 ft 181 kts 44°
2026-04-20 20:36 30.04132 31.32105 2411 ft 183 kts 44°
2026-04-20 20:36 30.04966 31.33208 2146 ft 181 kts 44°
2026-04-20 20:36 30.05792 31.34298 1966 ft 177 kts 44°
2026-04-20 20:36 30.06597 31.35363 1764 ft 171 kts 44°
2026-04-20 20:37 30.07349 31.36411 1278 ft 171 kts 47°
2026-04-20 20:37 30.08057 31.37436 903 ft 149 kts 45°
2026-04-20 20:37 30.08722 31.38263 522 ft 129 kts 41°
2026-04-20 20:37 30.09401 31.39120 596 ft 152 kts 42°
2026-04-20 20:38 30.10089 31.40011 1033 ft 282 kts 43°
2026-04-20 20:38 30.11327 31.41530 1275 ft 223 kts 46°
2026-04-20 20:38 30.12245 31.42761 1674 ft 185 kts 37°
2026-04-20 20:38 30.13356 31.43000 2163 ft 157 kts 329°
2026-04-20 20:39 30.14106 31.42131 2790 ft 148 kts 306°
2026-04-20 20:39 30.14068 31.41014 3249 ft 163 kts 256°
2026-04-20 20:39 30.13727 31.39685 3474 ft 181 kts 259°
2026-04-20 20:39 30.13438 31.38278 3270 ft 165 kts 262°
2026-04-20 20:40 30.13276 31.37432 3515 ft 170 kts 261°
2026-04-20 20:40 30.12817 31.35579 3373 ft 190 kts 255°
2026-04-20 20:40 30.12526 31.34623 3149 ft 191 kts 254°
2026-04-20 20:40 30.12042 31.33191 2624 ft 191 kts 252°
2026-04-20 20:41 30.11505 31.31777 1859 ft 194 kts 251°
2026-04-20 20:41 30.10918 31.30351 1060 ft 198 kts 248°
2026-04-20 20:41 30.10344 31.29012 886 ft 156 kts 245°
2026-04-20 20:41 30.09828 31.28073 899 ft 123 kts 234°
2026-04-20 20:42 30.09275 31.27249 742 ft 128 kts 243°
2026-04-20 20:42 30.09303 31.26085 767 ft 279 kts 319°
2026-04-20 20:42 30.10739 31.24633 1062 ft 267 kts 318°
2026-04-20 20:42 30.12043 31.23155 1132 ft 258 kts 311°
2026-04-20 20:43 30.13050 31.21508 1325 ft 247 kts 291°
2026-04-20 20:43 30.13421 31.19631 1698 ft 226 kts 279°
2026-04-20 20:43 30.13625 31.17944 2027 ft 197 kts 277°
2026-04-20 20:43 30.13724 31.16947 2164 ft 184 kts 276°
2026-04-20 20:44 30.13858 31.15507 2148 ft 178 kts 275°
2026-04-20 20:44 30.13989 31.14099 2076 ft 175 kts 276°
2026-04-20 20:44 30.14115 31.12714 2020 ft 172 kts 270°
2026-04-20 20:44 30.13602 31.11485 1982 ft 171 kts 213°
2026-04-20 20:45 30.12442 31.11133 1947 ft 172 kts 178°
2026-04-20 20:45 30.11258 31.11626 1520 ft 188 kts 147°
2026-04-20 20:45 30.10279 31.12398 1936 ft 160 kts 129°
2026-04-20 20:45 30.09434 31.13263 1851 ft 165 kts 126°
2026-04-20 20:46 30.08741 31.14373 1680 ft 178 kts 107°
2026-04-20 20:46 30.08327 31.15684 1574 ft 185 kts 88°
2026-04-20 20:46 30.08435 31.17260 1252 ft 197 kts 72°
2026-04-20 20:46 30.08666 31.18799 1671 ft 188 kts 69°
2026-04-20 20:47 30.08930 31.20290 1726 ft 190 kts 80°
2026-04-20 20:47 30.08825 31.21820 1740 ft 194 kts 92°
2026-04-20 20:47 30.08619 31.23381 1764 ft 198 kts 87°
2026-04-20 20:47 30.08493 31.24932 1947 ft 188 kts 83°
2026-04-20 20:48 30.08560 31.26480 1894 ft 193 kts 81°
2026-04-20 20:48 30.08481 31.28025 1956 ft 194 kts 80°
2026-04-20 20:48 30.08453 31.29514 2252 ft 173 kts 85°
2026-04-20 20:48 30.08528 31.30887 2047 ft 172 kts 68°
2026-04-20 20:49 30.08684 31.32249 2042 ft 178 kts 68°
2026-04-20 20:49 30.09013 31.33720 2030 ft 198 kts 69°
2026-04-20 20:49 30.09222 31.35365 2044 ft 214 kts 72°
2026-04-20 20:49 30.09172 31.37166 1792 ft 241 kts 89°
2026-04-20 20:50 30.09582 31.39049 1234 ft 259 kts 49°
2026-04-20 20:50 30.10872 31.40627 845 ft 269 kts 43°
2026-04-20 20:50 30.12039 31.42154 457 ft 240 kts 49°
2026-04-20 20:50 30.12566 31.43622 780 ft 171 kts 118°